www.pogodaiklimat.ru
ПОГОДА в Кловисе
Время
и дата
18:55 29.01
19:55 29.01
20:55 29.01
21:55 29.01
22:05 29.01
22:10 29.01
22:16 29.01
22:26 29.01
22:47 29.01
22:55 29.01
23:01 29.01
23:32 29.01
23:46 29.01
23:55 29.01
00:19 30.01
00:33 30.01
00:55 30.01
01:03 30.01
01:17 30.01
01:48 30.01
01:55 30.01
02:02 30.01
02:12 30.01
02:34 30.01
02:48 30.01
02:55 30.01
03:23 30.01
03:51 30.01
03:55 30.01
04:58 30.01
05:55 30.01
06:53 30.01
07:30 30.01
08:03 30.01
09:02 30.01
10:01 30.01
11:01 30.01
12:05 30.01
12:57 30.01
13:57 30.01
14:59 30.01
15:55 30.01
16:55 30.01
17:01 30.01
17:55 30.01
17:57 30.01
18:55 30.01
19:55 30.01
Ветер
(напр.,м/с)
Видим. Явления Облачность Т
(С)
Тd
(С)
f
(%)
Тe
(С)
Тes
(С)
Комфортность P
(гПа)
Po
(гПа)
Тmin
(С)
Tmax
(С)
R
(мм)
R24
(мм)
S
(см)
В 5 16 км ясно -4.2 -4.3 99 -11 -11 1018.9 868.0
В 6 16 км ясно -4.6 -4.7 99 -13 -13 1020.3 868.8
В 6 16 км ясно -4.8 -4.9 99 -13 -13 1021.3 869.7
В 5 16 км ясно -5.3 -5.4 99 -13 -13 1022.0 870.3
В 6 16 км слабая замерзающая морось 5/5 330 m
[St]
-5.0 -6.0 93 -13 -13 1022.0 870.3
В 7 16 км слабая замерзающая морось 8/8 300 m
[St]
-5.0 -5.0 100 -14 -14 1022.4 870.6
В 6 16 км 8/8 300 м -6.0 -6.0 100 -14 -14 1022.4 870.3
В 6 16 км 10/10 270 м -6.0 -6.0 100 -14 -14 1022.4 870.3
В 6 16 км слабая замерзающая морось 10/10 270 m
[St]
-6.0 -6.0 100 -14 -14 1022.4 870.3
В 6 16 км слабая замерзающая морось 10/10 240 m
[St]
-6.4 -6.5 99 -15 -15 1022.4 870.3 -6.4 -2.3
СВ 6 16 км 10/10 240 м -7.0 -7.0 100 -15 -15 1022.4 870.3
СВ 5 16 км слабая замерзающая морось 10/10 240 m
[St]
-7.0 -7.0 100 -15 -15 1022.7 870.6
СВ 5 16 км 10/10 240 м -7.0 -7.0 100 -15 -15 1022.7 870.6
СВ 5 16 км 10/10 240 м -7.5 -7.6 99 -15 -15 1022.7 870.6
СВ 6 16 км слабая замерзающая морось 10/10 240 m
[St]
-8.0 -8.0 100 -16 -16 1022.7 870.6
В 5 16 км 10/10 240 м -8.0 -8.0 100 -16 -16 1023.1 870.8
СВ 5 16 км 10/10 240 м -8.1 -8.2 99 -16 -16 1023.1 870.8
В 5 16 км слабая замерзающая морось 10/10 240 m
[St]
-8.0 -8.0 100 -16 -16 1022.7 870.8
СВ 5 16 км 10/10 210 м -8.0 -8.0 100 -16 -16 1023.1 871.1
СВ 5 16 км слабая замерзающая морось 10/10 210 m
[St]
-8.0 -8.0 100 -16 -16 1022.7 870.8
СВ 5 16 км слабая замерзающая морось 10/10 210 m
[St]
-8.2 -8.3 99 -16 -16 1023.1 871.1
СВ 6 16 км 10/10 210 м -8.0 -8.0 100 -16 -16 1023.1 871.1
СВ 5 16 км 10/10 180 м -8.0 -8.0 100 -16 -16 1023.1 871.1
СВ 5 16 км слабая замерзающая морось 10/10 180 m
[St]
-8.0 -9.0 92 -16 -16 1023.1 871.1
СВ 6 16 км 10/10 180 м -9.0 -9.0 100 -18 -18 1023.1 871.1
СВ 6 16 км 10/10 180 м -8.6 -8.8 98 -17 -17 1023.1 871.1
СВ 5 3 км слабая замерзающая морось 10/10 150 m
[St]
-9.0 -9.0 100 -17 -17 1023.1 871.1
В 5 1 км замерзающая морось, дымка 10/10 90 m
[St]
-9.0 -9.0 100 -17 -17 1023.1 871.1
В 4 1 км FZBR 10/10 90 м -9.2 -9.4 98 -16 -16 1023.4 871.4
СВ 4 1 км FZBR 10/10 90 м -9.4 -9.6 98 -16 -16 1023.8 871.4 -9.4 -6.6
СВ 4 1 км FZBR 10/10 90 м -9.6 -9.8 98 -17 -17 1024.5 871.7
В 3 1 км замерзающая морось, дымка 10/10 90 m
[St]
-10.2 -10.4 98 -16 -16 1024.9 872.0
В 4 2 км слабый снег, FZBR 10/10 90 m
[Ns]
-10.0 -10.0 100 -17 -17 1025.6 872.6
В 3 8 км дымка, слабый снег 10/10 90 м -10.1 -10.3 98 -16 -16 1025.9 872.9
В 3 6 км слабый снег, дымка 10/10 90 m
[Ns]
-9.6 -9.8 98 -16 -16 1025.9 872.9
В 3 8 км дымка 10/10 90 м -8.8 -9.0 98 -15 -15 1025.9 872.9 -10.3 -8.8
В 2 8 км дымка 10/10 90 м -7.9 -8.0 99 -13 -13 1025.2 872.3
В 2 8 км дымка 10/10 90 м -6.8 -6.9 99 -11 -11 1024.2 871.4
Ю 3 11 км 10/10 90 м -6.1 -6.2 99 -12 -12 1022.8 870.3
Ю 3 14 км 10/10 90 м -5.5 -5.6 99 -11 -11 1021.7 869.4
Ю 3 11 км 10/10 120 м -5.0 -5.1 99 -11 -11 1020.7 868.5
ЮВ 2 16 км 10/10 120 м -4.8 -4.9 99 -9 -9 1021.0 868.8
ЮВ 4 8 км дымка 10/10 120 м -4.8 -4.9 99 -11 -11 1021.7 869.4 -7.9 -4.6
ЮВ 5 16 км слабая замерзающая морось 10/10 120 m
[St]
-5.0 -5.0 100 -12 -12 1021.7 869.4
ЮВ 5 8 км дымка 10/10 150 м -4.8 -4.9 99 -12 -12 1022.1 869.7
ЮВ 5 16 км 10/10 150 м -4.8 -4.9 99 -12 -12 1022.4 870.0
ЮВ 4 16 км 10/10 90 м -5.0 -5.1 99 -12 -12 1023.5 870.6
ЮВ 4 16 км 10/10 90 м -5.3 -5.4 99 -12 -12 1023.8 870.8
Местоположение метеостанции Cannon Air Force Base: широта 34.3833 долгота -103.3167 высота над уровнем моря 1309 м.
В архиве по умолчанию представлена погода в Кловисе за последние 1-2 суток. Обновление информации о фактической погоде в базе происходит ежечасно! Архивные данные за месяц целиком и за предыдущие месяцы Вы можете получить, выбрав интересующий диапазон дат из раскрывающегося списка и нажав кнопку "Ввод!".
Внимание! Архив погоды МЕТАР в базе сайта по станциям, не включенным в климатический монитор, хранится не более 60 дней. Нет смысла пытаться выбрать более раннюю дату.
*Определитесь, кто Вы:
Внимание! Время в таблицах - местное (без учета летнего времени). Для получения всемирного времени необходимо вычесть поправку, которая равна -7 ч.
Смотрите также архив погоды в соседних городах и на ближайших метеорологических станциях:
Партнеры нашего сайта:      
Пояснения к столбцам:
  • Ветер - указаны скорость ветра в м/с - средняя за 10 мин, порывы в срок и между сроками (в фигурных скобках) и направление, откуда дует ветер: С - северный,
  • СВ - северо-восточный, В - восточный, ЮВ - юго-восточный, Ю - южный, ЮЗ - юго-западный, З - западный, СЗ - северо-западный.
  • Видимость - горизонтальная дальность видимости в метрах или километрах. При видимости от 1 до 10 км при отсутствии осадков обычно наблюдается дымка, при ухудшении видимости до 1 км и менее - туман. В сухую погоду видимость может ухудшаться дымом, пылью или мглою.
  • Явления - указаны атмосферные явления, наблюдавшиеся в срок или в последний час перед сроком; фигурными скобками обозначены явления, наблюдавшиеся между сроками (за 1-3 часа до срока); квадратными скобками обозначены град или гололедные отложения с указанием их диаметра в мм.
  • Облачность - указаны через наклонную черту общая и нижняя облачность в баллах и высота нижней границы облаков в метрах; квадратными скобками обозначены формы облаков: Ci - перистые, Cs - перисто-слоистые, Cc - перисто-кучевые, Ac - высококучевые, As - высокослоистые, Sc - слоисто-кучевые, Ns - слоисто-дождевые, Cu - кучевые, Cb - кучево-дождевые. Подробнее классификацию облаков см. в Атласе облаков (PDF).
  • T - Температура воздуха - температура, измеренная на высоте 2 м над землей.
  • Td - Температура точки росы - температура, при понижении до которой содержащийся в воздухе водяной пар достигнет насыщения.
  • f - Относительная влажность воздуха - влажноcть воздуха, измеренная на высоте 2 м над землей.
  • Te - Эффективная температура - температура, которую ощущает одетый по сезону человек в тени. Характеристика душности погоды. При расчете учитывается влияние влажности воздуха и скорости ветра на теплоощущения человека.
  • Tes - Эффективная температура на солнце - температура, которую ощущает человек, с поправкой на солнечный нагрев. Характеристика знойности погоды. Зависит от высоты солнца над горизонтом, облачности и скорости ветра. Ночью, в пасмурную погоду, а также при ветре 12 м/с и более поправка равна нулю.
  • P - Атмосферное давление - приведенное к уровню моря атмосферное давление.
  • Po - Атмосферное давление - измеренное на уровне метеостанции атмосферное давление.
  • Tmin - Минимальная температура - минимум температуры воздуха на высоте 2 м над землей.
  • Tmax - Максимальная температура - максимум температуры воздуха на высоте 2 м над землей.
  • R - Количество осадков - Количество выпавших осадков за период времени, мм. При наведении курсора мыши на число - период времени, за который выпало указанное количество осадков.
  • R24 - Количество осадков - Количество выпавших осадков за 24 часа, мм.
  • S - Снежный покров - Высота снежного покрова, см. При наведении курсора мыши на число - состояние снежного покрова и степень покрытия местности в баллах.